Location: Milano
(45.4670°N, 9.2000°E)
Time: 13:38:40
(UTC+01:00)

ISS - Visible Passes

Search period start: 24 January 2019 00:00
Search period end: 03 February 2019 00:00
Orbit: 404 x 410 km, 51.6° (Epoch: 24 January)

Date Brightness Start Highest point End Pass type
(mag) Time Alt. Az. Time Alt. Az. Time Alt. Az.
24 Jan -3.2 19:22:04 10° WSW 19:24:47 57° WSW 19:24:47 57° WSW visible
25 Jan -3.7 18:30:46 10° SW 18:34:01 61° SSE 18:35:41 26° ENE visible
25 Jan -0.7 20:07:38 10° W 20:08:24 15° WNW 20:08:24 15° WNW visible
26 Jan -3.1 19:16:01 10° W 19:19:13 45° NNW 19:19:13 45° NNW visible
27 Jan -3.6 18:24:28 10° WSW 18:27:46 66° NNW 18:30:00 19° NE visible
27 Jan -0.9 20:01:47 10° WNW 20:02:43 16° WNW 20:02:43 16° WNW visible
28 Jan -2.6 19:10:06 10° WNW 19:13:07 31° NNW 19:13:26 31° N visible
29 Jan -2.9 18:18:26 10° W 18:21:34 39° NNW 18:24:07 14° NE visible
29 Jan -1.1 19:55:46 10° WNW 19:56:50 17° NW 19:56:50 17° NW visible
30 Jan -2.4 19:04:09 10° WNW 19:07:02 27° N 19:07:30 26° NNE visible
31 Jan -2.5 18:12:27 10° WNW 18:15:24 29° N 18:18:09 11° NE visible
31 Jan -1.4 19:49:32 10° NW 19:50:52 19° NW 19:50:52 19° NW visible
01 Feb -2.5 18:58:01 10° NW 19:00:56 27° N 19:01:32 26° NNE visible
02 Feb -2.4 18:06:24 10° WNW 18:09:16 26° N 18:12:09 10° ENE visible
02 Feb -1.9 19:43:08 10° NW 19:44:55 26° NW 19:44:55 26° NW visible
